Weather History for Mackinac Island, MI

Change the Weather History Date:

Monday, September 9, 2013

  Actual Average Record
Temperature  
Mean Temperature 62 °F -  
Max Temperature 67 °F 67 °F 84 °F (2002)
Min Temperature 56 °F 54 °F 35 °F (1981)
Degree Days  
Heating Degree Days 4    
Growing Degree Days 12 (Base 50)    
Moisture  
Dew Point 56 °F    
Average Humidity 84    
Maximum Humidity 96    
Minimum Humidity 73    
Precipitation  
Precipitation 0.00 in - - ()
Sea Level Pressure  
Sea Level Pressure 29.92 in    
Wind  
Wind Speed 8 mph (SE)    
Max Wind Speed 13 mph    
Max Gust Speed 22 mph    
Visibility 10 miles    
Events Rain    
Averages and records for this station are not official NWS values.
T = Trace of Precipitation, MM = Missing Value Source: NWS Daily Summary

Daily Weather History Graph

Daily Weather History Graph

Search for Another Location

Airport:

Trip Planner

Search our weather history database for the weather conditions in past years. The results will help you decide how hot, cold, wet, or windy it might be!

Date:

Astronomy

Sep. 09, 2013 Rise Set
Actual Time 7:09 AM EDT 8:00 PM EDT
Civil Twilight 6:39 AM EDT 8:31 PM EDT
Nautical Twilight 6:03 AM EDT 9:07 PM EDT
Astronomical Twilight 5:25 AM EDT 9:44 PM EDT
Moon 11:46 AM EDT (9/9) 9:59 PM EDT (9/9)
Length of Visible Light 13h 51m
Length of Day
12h 51m
Waxing Crescent, 19% of the Moon is Illuminated
Sep 9
Waxing Crescent
Sep 12
First Quarter
Sep 19
Full
Sep 26
Last Quarter
Oct 4
New

Hourly Weather History & Observations

Time (EDT) Temp. Dew Point Humidity Pressure Visibility Wind Dir Wind Speed Gust Speed Precip Events Conditions
12:15 AM 56.8 °F 51.4 °F 82% 30.05 in 10.0 mi SE 10.4 mph - N/A   Clear
12:35 AM 57.2 °F 51.8 °F 82% 30.05 in 10.0 mi SSE 11.5 mph 18.4 mph N/A   Clear
12:55 AM 57.2 °F 52.5 °F 84% 30.05 in 10.0 mi SSE 12.7 mph 21.9 mph N/A   Clear
1:15 AM 57.0 °F 52.5 °F 85% 30.05 in 10.0 mi SSE 10.4 mph 18.4 mph N/A   Clear
1:35 AM 56.7 °F 52.7 °F 87% 30.05 in 10.0 mi SSE 12.7 mph 18.4 mph N/A   Clear
1:55 AM 56.7 °F 52.7 °F 87% 30.05 in 10.0 mi SSE 12.7 mph 19.6 mph N/A   Clear
2:15 AM 56.5 °F 52.0 °F 85% 30.05 in 10.0 mi SSE 11.5 mph 19.6 mph N/A   Clear
2:35 AM 56.7 °F 51.8 °F 84% 30.04 in 10.0 mi SSE 12.7 mph 19.6 mph N/A   Clear
2:55 AM 56.8 °F 51.4 °F 82% 30.03 in 10.0 mi SSE 12.7 mph 18.4 mph N/A   Clear
3:15 AM 57.0 °F 51.1 °F 81% 30.03 in 10.0 mi SSE 11.5 mph 18.4 mph N/A   Clear
3:35 AM 57.0 °F 50.9 °F 80% 30.03 in 10.0 mi South 8.1 mph 16.1 mph N/A   Clear
3:55 AM 57.0 °F 50.9 °F 80% 30.03 in 10.0 mi SSE 10.4 mph - N/A   Clear
4:15 AM 56.8 °F 50.9 °F 80% 30.02 in 10.0 mi SSE 10.4 mph - N/A   Clear
4:35 AM 56.8 °F 50.9 °F 80% 30.01 in 10.0 mi SSE 11.5 mph - N/A   Clear
4:55 AM 57.2 °F 50.9 °F 79% 30.02 in 10.0 mi South 11.5 mph - N/A   Clear
5:15 AM 57.2 °F 51.1 °F 80% 30.01 in 10.0 mi South 12.7 mph 18.4 mph N/A   Clear
5:35 AM 57.0 °F 51.3 °F 81% 30.00 in 10.0 mi South 11.5 mph - N/A   Clear
5:55 AM 57.2 °F 51.4 °F 81% 30.00 in 10.0 mi South 9.2 mph - N/A   Clear
6:15 AM 57.2 °F 51.6 °F 82% 30.00 in 10.0 mi South 10.4 mph - N/A   Clear
6:35 AM 57.2 °F 51.8 °F 82% 30.00 in 10.0 mi South 10.4 mph - N/A   Scattered Clouds
6:56 AM 57.4 °F 52.0 °F 82% 30.00 in 10.0 mi South 8.1 mph - N/A   Overcast
7:16 AM 57.4 °F 52.0 °F 82% 29.99 in 10.0 mi South 6.9 mph - N/A   Overcast
7:35 AM 57.6 °F 52.2 °F 82% 30.00 in 10.0 mi Calm Calm - N/A   Overcast
7:56 AM 58.1 °F 52.3 °F 81% 29.99 in 10.0 mi South 5.8 mph - N/A   Mostly Cloudy
8:16 AM 58.1 °F 52.7 °F 82% 29.98 in 10.0 mi South 5.8 mph - N/A   Overcast
8:35 AM 58.5 °F 52.7 °F 81% 29.98 in 10.0 mi South 5.8 mph - N/A   Overcast
8:56 AM 59.0 °F 52.9 °F 80% 29.98 in 10.0 mi South 6.9 mph - N/A   Overcast
9:16 AM 59.2 °F 52.9 °F 80% 29.99 in 10.0 mi South 6.9 mph - N/A   Overcast
9:36 AM 59.5 °F 53.2 °F 80% 29.98 in 10.0 mi SSE 5.8 mph - N/A   Overcast
9:56 AM 60.1 °F 54.0 °F 80% 29.97 in 10.0 mi SSE 8.1 mph - N/A   Overcast
10:16 AM 60.8 °F 53.8 °F 78% 29.98 in 10.0 mi SSE 6.9 mph - N/A   Overcast
10:36 AM 60.8 °F 54.1 °F 79% 29.97 in 10.0 mi SE 4.6 mph - N/A   Overcast
10:56 AM 61.9 °F 54.9 °F 78% 29.96 in 10.0 mi SSE 5.8 mph - N/A   Overcast
11:16 AM 62.6 °F 54.9 °F 76% 29.97 in 10.0 mi South 4.6 mph - N/A   Overcast
11:35 AM 62.2 °F 55.2 °F 78% 29.97 in 10.0 mi South 5.8 mph - N/A   Overcast
11:56 AM 62.8 °F 55.6 °F 77% 29.96 in 10.0 mi SSE 3.5 mph - N/A   Overcast
12:16 PM 63.5 °F 56.3 °F 77% 29.96 in 10.0 mi South 3.5 mph - N/A   Overcast
12:36 PM 64.0 °F 56.3 °F 76% 29.96 in 10.0 mi Calm Calm - N/A   Overcast
12:56 PM 64.9 °F 56.1 °F 73% 29.95 in 10.0 mi Calm Calm - N/A   Overcast
1:16 PM 64.9 °F 56.3 °F 74% 29.95 in 10.0 mi Calm Calm - N/A   Overcast
1:36 PM 65.3 °F 56.8 °F 74% 29.95 in 10.0 mi South 3.5 mph - N/A   Overcast
1:56 PM 65.3 °F 56.5 °F 73% 29.93 in 10.0 mi South 3.5 mph - N/A   Overcast
2:16 PM 65.3 °F 57.0 °F 75% 29.93 in 10.0 mi Calm Calm - N/A   Overcast
2:36 PM 66.7 °F 58.3 °F 74% 29.92 in 10.0 mi Calm Calm - N/A   Overcast
2:56 PM 65.3 °F 57.7 °F 76% 29.89 in 10.0 mi East 4.6 mph - N/A   Overcast
3:15 PM 62.6 °F 57.6 °F 84% 29.86 in 10.0 mi East 4.6 mph - N/A   Mostly Cloudy
3:36 PM 62.8 °F 56.8 °F 81% 29.88 in 10.0 mi East 4.6 mph - N/A   Mostly Cloudy
3:56 PM 61.9 °F 56.8 °F 84% 29.89 in 10.0 mi ENE 3.5 mph - N/A   Overcast
4:15 PM 61.7 °F 57.7 °F 87% 29.86 in 10.0 mi East 6.9 mph - N/A Rain Light Rain
4:36 PM 61.2 °F 58.5 °F 91% 29.87 in 10.0 mi East 5.8 mph - N/A   Overcast
4:56 PM 61.0 °F 58.6 °F 92% 29.87 in 10.0 mi ESE 4.6 mph - N/A   Overcast
5:16 PM 62.1 °F 58.6 °F 89% 29.80 in 10.0 mi East 11.5 mph 17.3 mph N/A   Overcast
5:36 PM 61.2 °F 59.4 °F 94% 29.81 in 10.0 mi East 5.8 mph - N/A   Mostly Cloudy
5:55 PM 63.1 °F 60.3 °F 90% 29.83 in 10.0 mi SE 5.8 mph - N/A   Scattered Clouds
6:16 PM 64.8 °F 60.6 °F 86% 29.82 in 10.0 mi ESE 5.8 mph - N/A   Scattered Clouds
6:36 PM 66.0 °F 61.7 °F 86% 29.81 in 10.0 mi SSE 3.5 mph - N/A   Scattered Clouds
6:55 PM 67.1 °F 62.1 °F 84% 29.82 in 10.0 mi SSE 3.5 mph - N/A   Scattered Clouds
7:16 PM 65.5 °F 63.0 °F 92% 29.81 in 10.0 mi Calm Calm - N/A   Scattered Clouds
7:36 PM 64.2 °F 61.9 °F 92% 29.81 in 10.0 mi Calm Calm - N/A   Scattered Clouds
7:56 PM 63.9 °F 61.5 °F 92% 29.80 in 10.0 mi ENE 3.5 mph - N/A   Scattered Clouds
8:16 PM 62.6 °F 60.8 °F 94% 29.80 in 10.0 mi ENE 4.6 mph - N/A   Scattered Clouds
8:36 PM 61.3 °F 60.1 °F 96% 29.81 in 10.0 mi ENE 5.8 mph - N/A   Mostly Cloudy
8:55 PM 62.4 °F 60.8 °F 94% 29.81 in 10.0 mi ENE 4.6 mph - N/A   Overcast
9:16 PM 62.6 °F 60.8 °F 94% 29.81 in 10.0 mi East 6.9 mph - N/A   Mostly Cloudy
9:36 PM 63.0 °F 60.8 °F 93% 29.81 in 10.0 mi ENE 8.1 mph - N/A   Mostly Cloudy
9:55 PM 63.0 °F 60.8 °F 93% 29.80 in 10.0 mi East 6.9 mph - N/A   Overcast
10:16 PM 62.6 °F 60.8 °F 94% 29.78 in 10.0 mi East 9.2 mph - N/A   Overcast
10:35 PM 62.1 °F 60.8 °F 96% 29.77 in 10.0 mi East 6.9 mph - N/A   Overcast
10:56 PM 63.5 °F 61.9 °F 94% 29.75 in 10.0 mi ESE 6.9 mph - N/A   Overcast
11:16 PM 64.8 °F 63.0 °F 94% 29.75 in 10.0 mi ESE 4.6 mph - N/A   Overcast
11:35 PM 67.1 °F 64.9 °F 93% 29.73 in 10.0 mi SE 8.1 mph - N/A   Mostly Cloudy
11:56 PM 66.7 °F 64.4 °F 92% 29.74 in 10.0 mi SSE 5.8 mph - N/A   Mostly Cloudy